[[{"header":{"parameterUnit":"m.s-1","parameterCategory":1,"la1":30.2991,"la2":30.254,"lo1":-89.0895,"lo2":-89.0444,"dy":0.0017,"dx":0.0017,"nx":28,"ny":28,"refTime":"2024-10-01T03:00:00:Z","depth":0,"parameterNumber":2,"parameterNumberName":"U-component_of_WINDS"},"data":[0,0,0,0,0,0,0,0,0,0,0,0,0,0,0,0,0,0,0,0,0,0,0,0,0,0,0,0,0,0,0,0,0,0,0,0,0,0,0,0,0,0,0,0,0,0,0,0,0,0,0,0,0,0,0,0,0,0,-1.059,-1.0591,0,-1.0666,-1.0667,-1.0668,-1.0632,-1.063,-1.0628,-1.0626,-1.0707,-1.0711,-1.0715,0,0,0,0,0,0,0,0,0,0,0,0,0,-1.0415,-1.0418,-1.059,-1.0591,-1.0592,-1.0666,-1.0667,-1.0668,-1.0632,-1.063,-1.0627,-1.0625,-1.0706,-1.071,-1.0715,0,0,0,0,0,0,0,0,0,0,0,0,0,-1.0491,-1.042,-1.059,-1.0583,-1.0583,-1.0666,-1.0667,-1.0669,-1.0633,-1.063,-1.0627,-1.0624,-1.0704,-1.071,-1.0716,-1.0811,0,0,-1.0734,-1.0736,0,0,0,0,0,0,0,0,-1.0487,-1.0498,-1.0583,-1.0583,-1.0584,-1.0636,-1.0635,-1.0716,-1.0633,-1.0614,-1.0626,-1.0623,-1.0686,-1.0693,-1.0714,-1.0815,-1.0818,-1.0734,-1.0738,-1.074,-1.0742,0,0,0,0,0,0,0,-1.0482,-1.0494,-1.062,-1.0584,-1.0585,-1.0576,-1.0584,-1.065,-1.0666,-1.0615,-1.0613,-1.0622,-1.0686,-1.0708,-1.0716,-1.0819,-1.0734,-1.0739,-1.0743,-1.0745,-1.1003,-1.1006,0,0,0,0,0,0,-1.0476,-1.049,-1.0618,-1.0622,-1.0527,-1.0582,-1.059,-1.0623,-1.0665,-1.0668,-1.0625,-1.062,-1.07,-1.0709,-1.0718,-1.0834,-1.074,-1.0746,-1.0749,-1.1,-1.1004,-1.1007,0,0,0,0,0,0,-1.0473,-1.0488,-1.0615,-1.0556,-1.0571,-1.0588,-1.0624,-1.0626,-1.0648,-1.0672,-1.0674,-1.0645,-1.0698,-1.071,-1.0788,-1.0836,-1.0749,-1.0754,-1.0996,-1.1001,-1.1005,-1.1066,0,0,0,0,0,0,-1.0468,-1.0487,-1.0523,-1.0557,-1.0574,-1.0683,-1.0627,-1.0629,-1.0658,-1.0653,-1.0692,-1.0695,-1.0696,-1.078,-1.0794,-1.0843,-1.0759,-1.0992,-1.0998,-1.1004,-1.106,-1.1072,-1.1083,0,0,0,0,0,-1.0462,-1.0537,-1.0525,-1.0541,-1.062,-1.0686,-1.0696,-1.0695,-1.0662,-1.0699,-1.0714,-1.0694,-1.0828,-1.0788,-1.0804,-1.0855,-1.0989,-1.0996,-1.1003,-1.1054,-1.107,-1.1082,0,0,0,0,0,0,-1.051,-1.0542,-1.0528,-1.0617,-1.0649,-1.0679,-1.0726,-1.0711,-1.0754,-1.0748,-1.0745,-1.0754,-1.0836,-1.0853,-1.0807,-1.095,-1.0903,-1.0914,-1.0937,-1.0951,-1.0963,-1.0958,-1.0764,0,0,0,0,0,-1.053,-1.0581,-1.0606,-1.0682,-1.0698,-1.0709,-1.0738,-1.0735,-1.0768,-1.0782,-1.0802,-1.0836,-1.0886,-1.0919,-1.0966,-1.1061,-1.107,-1.1104,-1.1115,-1.1125,-1.1135,-1.1188,-1.1205,-1.1031,-1.1031,-1.1031,0,0,-1.0574,-1.0598,-1.063,-1.0692,-1.0716,-1.077,-1.0721,-1.0779,-1.0819,-1.0791,-1.0866,-1.0882,-1.092,-1.1007,-1.1047,-1.1024,-1.1185,-1.1134,-1.1142,-1.1147,-1.1198,-1.1214,-1.1229,-1.1036,-1.1035,-1.1035,0,0,-1.0682,-1.0704,-1.077,-1.0795,-1.0832,-1.0839,-1.0855,-1.0888,-1.0897,-1.0972,-1.0953,-1.1,-1.1085,-1.1113,-1.1139,-1.1256,-1.124,-1.1271,-1.1333,-1.1385,-1.1398,-1.1411,-1.1455,-1.147,-1.1281,-1.1281,-1.1281,0,-1.0732,-1.0811,-1.0806,-1.0866,-1.0895,-1.087,-1.0938,-1.0962,-1.1013,-1.1034,-1.1007,-1.1114,-1.1137,-1.1232,-1.126,-1.1281,-1.13,-1.1268,-1.1397,-1.1409,-1.142,-1.1462,-1.1479,-1.1285,-1.1284,-1.1284,-1.1283,0,-1.0872,-1.0927,-1.0976,-1.1025,-1.1059,-1.1122,-1.1128,-1.1163,-1.1155,-1.1165,-1.1243,-1.127,-1.1322,-1.1344,-1.1337,-1.1438,-1.1423,-1.1396,-1.135,-1.1441,-1.148,-1.1496,-1.129,-1.1289,-1.1288,-1.1287,0,0,-1.1015,-1.106,-1.1078,-1.1101,-1.1139,-1.1182,-1.1244,-1.1295,-1.1326,-1.1361,-1.1415,-1.1487,-1.1463,-1.1492,-1.1488,-1.1533,-1.1627,-1.1501,-1.1502,-1.1526,-1.1741,-1.1763,-1.1782,-1.1614,-1.1617,-1.162,-1.1739,0,-1.1128,-1.1237,-1.1234,-1.1336,-1.1387,-1.1364,-1.1418,-1.1448,-1.1458,-1.1504,-1.1515,-1.1568,-1.1531,-1.1548,-1.1591,-1.1606,-1.167,-1.1597,-1.1667,-1.1669,-1.1661,-1.1802,-1.1825,-1.1936,-1.1754,-1.1756,-1.1758,0,-1.1274,-1.1314,-1.1421,-1.1453,-1.1474,-1.1523,-1.157,-1.1613,-1.1647,-1.1651,-1.1683,-1.1672,-1.1736,-1.1685,-1.1775,-1.1725,-1.1753,-1.1764,-1.1769,-1.1778,-1.1722,-1.1818,-1.1971,-1.1989,-1.1782,-1.178,-1.1779,0,-1.1371,-1.1451,-1.1526,-1.1546,-1.1583,-1.1619,-1.1636,-1.1667,-1.1697,-1.1738,-1.1758,-1.1805,-1.1832,-1.1869,-1.1872,-1.1834,-1.1963,-1.1912,-1.1971,-1.1971,-1.2002,-1.2001,-1.2165,-1.2014,-1.2014,-1.2014,-1.2013,0,-1.1499,-1.1566,-1.157,-1.1617,-1.1692,-1.1687,-1.1761,-1.1775,-1.1803,-1.1852,-1.1833,-1.188,-1.1879,-1.1927,-1.1929,-1.2005,-1.2016,-1.2023,-1.2023,-1.2026,-1.2026,-1.2047,-1.2041,-1.2018,-1.2017,-1.2016,-1.2015,0,-1.1622,-1.1627,-1.1707,-1.1736,-1.1744,-1.1799,-1.1823,-1.1868,-1.1875,-1.1938,-1.1953,-1.1966,-1.2021,-1.2026,-1.2091,-1.2092,-1.2184,-1.2174,-1.2173,-1.2173,-1.2232,-1.2228,-1.2419,-1.2445,-1.2274,-1.2275,-1.2277,0,-1.1705,-1.1756,-1.179,-1.1821,-1.184,-1.1891,-1.1922,-1.1919,-1.1952,-1.1994,-1.2034,-1.2087,-1.213,-1.222,-1.2236,-1.2285,-1.2279,-1.2342,-1.2286,-1.2288,-1.2283,-1.2282,-1.2288,-1.2354,-1.2356,-1.2358,-1.2359,0,-1.1853,-1.1852,-1.1897,-1.1944,-1.1981,-1.2018,-1.2052,-1.2079,-1.208,-1.2118,-1.2174,-1.2208,-1.2273,-1.2327,-1.2375,-1.2394,-1.2378,-1.2376,-1.2392,-1.2398,-1.2397,-1.2401,-1.2206,-1.2372,-1.2371,-1.237,-1.2369,-1.2369,-1.196,-1.2005,-1.2036,-1.2087,-1.2112,-1.2144,-1.2188,-1.22,-1.2247,-1.23,-1.2295,-1.2358,-1.239,-1.2453,-1.2475,-1.2524,-1.2503,-1.2527,-1.2533,-1.254,-1.2548,-1.2385,-1.2533,-1.2532,-1.2532,-1.2532,-1.2531,0,-1.2109,-1.2128,-1.2175,-1.2223,-1.2263,-1.2242,-1.2278,-1.2314,-1.2369,-1.24,-1.2442,-1.2507,-1.2559,-1.2578,-1.2629,-1.2665,-1.2659,-1.2679,-1.2678,-1.2683,-1.2562,-1.2544,-1.2683,-1.2683,-1.2683,-1.2683,-1.2683,-1.2683,-1.2192,-1.2268,-1.2271,-1.2359,-1.2376,-1.2438,-1.2461,-1.249,-1.2515,-1.2589,-1.2631,-1.2643,-1.2669,-1.2722,-1.2769,-1.2773,-1.2794,-1.2818,-1.2819,-1.2707,-1.2692,-1.2677,-1.266,-1.2822,-1.2822,-1.2937,-1.2938,-1.2939]},{"header":{"parameterUnit":"m.s-1","parameterCategory":1,"la1":30.2991,"la2":30.254,"lo1":-89.0895,"lo2":-89.0444,"dy":0.0017,"dx":0.0017,"nx":28,"ny":28,"refTime":"2024-10-01T03:00:00:Z","depth":0,"parameterNumber":3,"parameterNumberName":"V-component_of_WINDS"},"data":[0,0,0,0,0,0,0,0,0,0,0,0,0,0,0,0,0,0,0,0,0,0,0,0,0,0,0,0,0,0,0,0,0,0,0,0,0,0,0,0,0,0,0,0,0,0,0,0,0,0,0,0,0,0,0,0,0,0,-4.1938,-4.1939,0,-4.2038,-4.2039,-4.204,-4.1999,-4.1997,-4.1994,-4.1992,-4.2091,-4.2096,-4.21,0,0,0,0,0,0,0,0,0,0,0,0,0,-4.1708,-4.1712,-4.1938,-4.1939,-4.1941,-4.2038,-4.2039,-4.2041,-4.1999,-4.1997,-4.1994,-4.1991,-4.2089,-4.2095,-4.2101,0,0,0,0,0,0,0,0,0,0,0,0,0,-4.1808,-4.1714,-4.1938,-4.1932,-4.1932,-4.2038,-4.2039,-4.2041,-4.2,-4.1996,-4.1993,-4.199,-4.2087,-4.2094,-4.2102,-4.2218,0,0,-4.2124,-4.2127,0,0,0,0,0,0,0,0,-4.1802,-4.1816,-4.1931,-4.1932,-4.1933,-4.2003,-4.1994,-4.21,-4.2001,-4.1974,-4.1992,-4.1988,-4.2064,-4.2073,-4.21,-4.2222,-4.2227,-4.2124,-4.2129,-4.2132,-4.2134,0,0,0,0,0,0,0,-4.1795,-4.1812,-4.1977,-4.1933,-4.1934,-4.1923,-4.1933,-4.2014,-4.2038,-4.1976,-4.1973,-4.1986,-4.2064,-4.2093,-4.2102,-4.2228,-4.2124,-4.2131,-4.2135,-4.2138,-4.2451,-4.2455,0,0,0,0,0,0,-4.1789,-4.1806,-4.1974,-4.198,-4.1858,-4.193,-4.1941,-4.1984,-4.2037,-4.2042,-4.1989,-4.1984,-4.2082,-4.2093,-4.2105,-4.2245,-4.2132,-4.2139,-4.2143,-4.2447,-4.2452,-4.2456,0,0,0,0,0,0,-4.1784,-4.1804,-4.197,-4.1893,-4.1913,-4.1938,-4.1986,-4.1988,-4.2016,-4.2047,-4.205,-4.2014,-4.208,-4.2095,-4.219,-4.2247,-4.2142,-4.2149,-4.2442,-4.2448,-4.2454,-4.2525,0,0,0,0,0,0,-4.1777,-4.1803,-4.1848,-4.1894,-4.1917,-4.2055,-4.1989,-4.1992,-4.203,-4.2024,-4.2071,-4.2076,-4.2078,-4.218,-4.2197,-4.2256,-4.2154,-4.2437,-4.2445,-4.2452,-4.2518,-4.2533,-4.2546,0,0,0,0,0,-4.1769,-4.1863,-4.185,-4.1871,-4.1975,-4.2059,-4.2072,-4.2074,-4.2034,-4.208,-4.2099,-4.2074,-4.2238,-4.219,-4.2209,-4.2271,-4.2434,-4.2443,-4.2451,-4.2512,-4.253,-4.2545,0,0,0,0,0,0,-4.1822,-4.1869,-4.1856,-4.1967,-4.201,-4.2052,-4.2109,-4.2093,-4.2146,-4.2138,-4.2137,-4.2148,-4.2247,-4.2268,-4.2213,-4.2386,-4.233,-4.2343,-4.2369,-4.2386,-4.24,-4.2393,-4.216,0,0,0,0,0,-4.1847,-4.1912,-4.1949,-4.2044,-4.2066,-4.2084,-4.2121,-4.2119,-4.2162,-4.2179,-4.2205,-4.2247,-4.2308,-4.2348,-4.2405,-4.252,-4.253,-4.2572,-4.2586,-4.2597,-4.2609,-4.2671,-4.269,-4.2485,-4.2485,-4.2485,0,0,-4.1898,-4.1932,-4.1974,-4.2056,-4.2088,-4.2155,-4.2099,-4.2173,-4.2222,-4.219,-4.2282,-4.2303,-4.2349,-4.2455,-4.2503,-4.2475,-4.2667,-4.2608,-4.2617,-4.2623,-4.2682,-4.2701,-4.2718,-4.2491,-4.249,-4.2489,0,0,-4.2027,-4.2059,-4.2142,-4.2176,-4.2226,-4.2237,-4.2257,-4.2302,-4.2315,-4.2408,-4.2385,-4.2443,-4.2548,-4.2582,-4.2613,-4.2754,-4.2734,-4.2773,-4.2846,-4.2906,-4.2922,-4.2937,-4.2987,-4.3005,-4.2784,-4.2784,-4.2784,0,-4.2085,-4.2186,-4.2186,-4.2262,-4.2299,-4.2273,-4.2357,-4.2389,-4.2455,-4.2481,-4.2449,-4.2581,-4.261,-4.2723,-4.2758,-4.2784,-4.2806,-4.2768,-4.292,-4.2934,-4.2948,-4.2996,-4.3015,-4.2789,-4.2788,-4.2788,-4.2787,0,-4.2254,-4.2325,-4.2386,-4.2452,-4.2495,-4.2574,-4.2585,-4.2629,-4.2622,-4.2637,-4.2731,-4.2765,-4.283,-4.2856,-4.285,-4.2969,-4.295,-4.292,-4.2864,-4.2972,-4.3017,-4.3036,-4.2795,-4.2794,-4.2792,-4.2791,0,0,-4.242,-4.2485,-4.2508,-4.2537,-4.2591,-4.2644,-4.2722,-4.2786,-4.2823,-4.2869,-4.2934,-4.3023,-4.2995,-4.303,-4.3027,-4.3081,-4.3191,-4.3043,-4.3044,-4.307,-4.3324,-4.3347,-4.3369,-4.3177,-4.318,-4.3183,-4.332,0,-4.2553,-4.2691,-4.2693,-4.2819,-4.2884,-4.286,-4.2927,-4.2967,-4.2982,-4.3038,-4.3053,-4.3117,-4.3075,-4.3097,-4.3148,-4.3167,-4.3242,-4.3156,-4.3236,-4.3239,-4.3227,-4.3392,-4.3417,-4.3545,-4.3338,-4.3341,-4.3343,0,-4.2727,-4.278,-4.2913,-4.2957,-4.2984,-4.3045,-4.3104,-4.3158,-4.3202,-4.3209,-4.3248,-4.3238,-4.3315,-4.3256,-4.3363,-4.3305,-4.3337,-4.3351,-4.3356,-4.3364,-4.3298,-4.3406,-4.3586,-4.3605,-4.3371,-4.3368,-4.3366,0,-4.2836,-4.294,-4.3033,-4.3059,-4.3112,-4.3156,-4.318,-4.322,-4.3258,-4.3309,-4.3334,-4.3392,-4.3424,-4.3469,-4.3474,-4.3431,-4.3582,-4.3523,-4.3589,-4.3589,-4.3623,-4.3621,-4.3812,-4.3643,-4.3642,-4.3642,-4.3642,0,-4.2985,-4.3067,-4.3083,-4.314,-4.3231,-4.3232,-4.3322,-4.3342,-4.3378,-4.3438,-4.342,-4.3476,-4.3479,-4.3536,-4.354,-4.3628,-4.3642,-4.365,-4.365,-4.3652,-4.3651,-4.3674,-4.3665,-4.3647,-4.3646,-4.3645,-4.3644,0,-4.3122,-4.3135,-4.3235,-4.3278,-4.3291,-4.3356,-4.3392,-4.3446,-4.3459,-4.3535,-4.3552,-4.3572,-4.3639,-4.3648,-4.3725,-4.3728,-4.3834,-4.3824,-4.382,-4.3819,-4.3885,-4.3879,-4.4098,-4.4126,-4.3938,-4.394,-4.3941,0,-4.3217,-4.328,-4.3329,-4.3369,-4.3396,-4.3459,-4.3499,-4.3502,-4.3543,-4.3597,-4.3645,-4.371,-4.3762,-4.3869,-4.389,-4.3949,-4.3941,-4.4013,-4.3949,-4.395,-4.3943,-4.3939,-4.3946,-4.4026,-4.4028,-4.403,-4.4031,0,-4.3384,-4.3388,-4.3446,-4.3507,-4.3554,-4.3602,-4.3646,-4.3679,-4.3688,-4.3735,-4.3804,-4.3844,-4.3924,-4.3988,-4.4047,-4.407,-4.4052,-4.4051,-4.4069,-4.4073,-4.4068,-4.4072,-4.3854,-4.4046,-4.4045,-4.4043,-4.4043,-4.4042,-4.3503,-4.3558,-4.3602,-4.3667,-4.3701,-4.3744,-4.3797,-4.3817,-4.3874,-4.3941,-4.3938,-4.4013,-4.4054,-4.4131,-4.4158,-4.4216,-4.4192,-4.4219,-4.4226,-4.4233,-4.424,-4.4058,-4.4227,-4.4226,-4.4226,-4.4225,-4.4225,0,-4.367,-4.3697,-4.3757,-4.3821,-4.3872,-4.3852,-4.39,-4.3944,-4.4011,-4.4051,-4.4103,-4.4182,-4.4244,-4.427,-4.4331,-4.4372,-4.4366,-4.4388,-4.4385,-4.4391,-4.4257,-4.4236,-4.4393,-4.4392,-4.4392,-4.4392,-4.4392,-4.4392,-4.3763,-4.3855,-4.3864,-4.3972,-4.3998,-4.4073,-4.4103,-4.4141,-4.4173,-4.4263,-4.4315,-4.4331,-4.4366,-4.4429,-4.4485,-4.449,-4.4514,-4.454,-4.4542,-4.4417,-4.44,-4.4384,-4.4364,-4.4545,-4.4545,-4.4671,-4.4672,-4.4673]}]]